Location: Córrego Montividiu
(13.2496°S, 48.8603°W)
Time: 12:01:28
(UTC+00:00)

Resurs 01 Rocket - Pass Details

Date: 11 March 2026
Orbit: 625 x 637 km, 97.7° (Epoch: 22 April)

Event Time Altitude Azimuth Distance (km) Brightness Sun altitude
Rises 22:32:48 0° 163° (SSE) 2,938 4.9 -15.6°
Reaches altitude 10° 22:35:02 10° 160° (SSE) 2,026 4.1 -16.1°
Maximum altitude 22:39:24 61° 79° (E) 720 1.5 -17.2°
Drops below altitude 10° 22:43:44 10° 359° (N) 2,012 4.1 -18.2°
Sets 22:45:57 0° 355° (N) 2,916 5.0 -18.7°
